Overview Statistics Trail Chart Weather Telemetry Raw packets
 

This is the latest recevied weather packets stored in our database for station/object OE6ACM-10. If no packets are shown the sender has not sent any weather packets the latest 10 day(s).

<< 99 100 101 102 103 104 105 >>
Time Temp. Humidity Pressure Rain* Wind** Luminosity Snow
1787932659 36.11° C 100% 923.7 hPa - - - -
1787932359 37.22° C 100% 923.8 hPa - - - -
1787932059 36.67° C 100% 923.7 hPa - - - -
1787931759 36.67° C 100% 923.8 hPa - - - -
1787931459 37.78° C 100% 923.8 hPa - - - -
1787931159 37.78° C 100% 923.8 hPa - - - -
1787930859 37.78° C 100% 923.7 hPa - - - -
1787930559 38.33° C 100% 923.5 hPa - - - -
1787930259 38.33° C 100% 923.6 hPa - - - -
1787929959 38.33° C 100% 923.7 hPa - - - -
1787929659 38.89° C 100% 923.7 hPa - - - -
1787929359 39.44° C 100% 923.6 hPa - - - -
1787929059 40° C 100% 923.6 hPa - - - -
1787928759 40° C 100% 923.7 hPa - - - -
1787928459 40° C 100% 923.7 hPa - - - -
1787928159 39.44° C 100% 923.9 hPa - - - -
1787927859 38.89° C 100% 924 hPa - - - -
1787927559 38.89° C 100% 924 hPa - - - -
1787927259 40° C 100% 923.9 hPa - - - -
1787926959 41.67° C 100% 923.9 hPa - - - -
1787926659 42.22° C 100% 923.8 hPa - - - -
1787926359 42.22° C 100% 923.8 hPa - - - -
1787926059 42.22° C 100% 923.9 hPa - - - -
1787925759 42.78° C 100% 923.8 hPa - - - -
1787925459 43.33° C 100% 923.7 hPa - - - -

* Rain since midnight (hover to see other rain measurements)
** Current wind speed in m/s (hover to see current wind gust speed)